Location: Fxbg
(38.3018°N, 77.4708°W)
Time: 14:23:05
(UTC-05:00)

ISS - Visible Passes

Search period start: 20 January 2021 00:00
Search period end: 30 January 2021 00:00
Orbit: 418 x 419 km, 51.6° (Epoch: 21 January)

Date Brightness Start Highest point End Pass type
(mag) Time Alt. Az. Time Alt. Az. Time Alt. Az.
20 Jan -2.3 18:52:55 10° W 18:55:56 30° NNW 18:56:51 26° N visible
21 Jan -3.0 18:04:51 10° WSW 18:08:07 48° NW 18:11:14 11° NE visible
21 Jan -0.6 19:44:03 10° NW 19:44:11 10° NW 19:44:11 10° NW visible
22 Jan -1.4 18:55:25 10° WNW 18:57:35 16° NNW 18:58:30 14° N visible
23 Jan -1.8 18:06:57 10° W 18:09:37 21° NNW 18:12:17 10° NNE visible
24 Jan -1.0 18:58:46 10° NNW 18:59:21 10° NNW 18:59:55 10° N visible
25 Jan -1.2 18:09:45 10° NW 18:11:17 12° NNW 18:12:50 10° N visible
